User: anonymous   Login
Location: Newark
(45.4422°N, 16.2769°E)
Time: 17:00:23
(UTC+00:00)
Language:

S-56A Canister/Altair - Orbit

View from above orbital plane
View from above orbital plane
View from above satellite
View from above satellite

Ground track
Ground track

The orbit data is extracted from the following two-line orbital elements,

1    82U 61004B   19338.94768310 -.00000035 +00000-0 -25279-5 0  9993
2    82 038.8588 202.2892 1174655 220.0510 130.7540 12.26056376783811
Epoch (UTC): 04 December 2019 22:44:39
Eccentricity: 0.1174655
inclination: 38.8588°
perigee height: 633 km
apogee height: 2499 km
right ascension of ascending node: 202.2892°
argument of perigee: 220.0510°
revolutions per day: 12.26056376
mean anomaly at epoch: 130.7540°
orbit number at epoch: 78381

The dashed part of the orbit path shows where the satellite is in the earth's shadow,  

DLR